Location: Argonnex
(45.9500°N, 6.1333°E)
Time: 12:29:58
(UTC+00:00)

IRIDIUM 103 - Pass Details

Date: 28 January 2023
Orbit: 776 x 779 km, 86.4° (Epoch: 25 March)

Event Time Altitude Azimuth Distance (km) Brightness Sun altitude
Rises 18:43:50 0° 359° (N) 3,276 7.6 -22.4°
Reaches altitude 10° 18:46:13 10° 2° (N) 2,344 6.8 -22.9°
Maximum altitude 18:51:26 65° 84° (E) 856 4.2 -23.8°
Enters shadow 18:52:25 54° 135° (SE) 947 4.4 -23.9°
Exits shadow 18:57:08 - 168° (SSE) 2,526 6.9 -24.7°
Sets 18:58:58 0° 170° (S) 3,248 7.5 -25.1°
